EW4337 Weather Reports


Display with metric or nautical units.
time (UTC)temp
F
wind
direction
speed
MPH
gust
MPH
rain 1hr
in
rain 24hr
in
rain mn
in
humidity
%
barometer
mb
20220122084705 42 300 3.0 7.0 0.00 0.06 0.04 94 1032.7
20220122083704 42 274 2.0 7.0 0.00 0.06 0.04 94 1032.5
20220122082705 42 275 3.0 7.0 0.00 0.06 0.04 94 1032.6
20220122081706 42 300 3.0 8.0 0.00 0.06 0.04 94 1032.6
20220122080705 42 298 5.0 10.0 0.00 0.06 0.04 94 1032.5
20220122075704 42 312 5.0 10.0 0.00 0.06 0.04 94 1032.5
20220122074701 42 293 5.0 12.0 0.00 0.06 0.04 94 1032.5
20220122073701 42 297 6.0 14.0 0.01 0.06 0.04 94 1032.5
20220122072701 42 304 6.0 12.0 0.02 0.06 0.04 94 1032.4
20220122071702 42 295 5.0 12.0 0.02 0.06 0.04 94 1032.3
20220122070701 42 304 3.0 10.0 0.02 0.06 0.04 94 1032.4
20220122065702 42 305 5.0 12.0 0.02 0.06 0.04 94 1032.4
20220122064702 42 283 6.0 12.0 0.02 0.06 0.04 94 1032.4
20220122063702 42 300 3.0 10.0 0.01 0.05 0.03 94 1032.3
20220122062701 42 285 3.0 7.0 0.00 0.04 0.02 94 1032.1
20220122061701 42 299 3.0 7.0 0.00 0.04 0.02 94 1032.1
20220122060701 42 294 3.0 9.0 0.00 0.05 0.02 94 1032.1
20220122055701 43 310 2.0 9.0 0.00 0.05 0.02 94 1031.9
20220122054701 42 304 4.0 10.0 0.00 0.05 0.02 94 1031.9
20220122053701 42 313 6.0 9.0 0.00 0.05 0.02 94 1031.8
20220122052701 43 290 5.0 12.0 0.01 0.05 0.02 94 1031.8
20220122051702 43 306 7.0 12.0 0.01 0.05 0.02 94 1031.8
20220122050701 43 309 5.0 10.0 0.01 0.05 0.02 94 1031.5
20220122045701 43 301 4.0 12.0 0.01 0.05 0.02 94 1031.6
20220122044702 43 303 5.0 10.0 0.01 0.05 0.02 94 1031.6
20220122043701 43 299 5.0 10.0 0.01 0.05 0.02 94 1031.6
20220122042701 43 290 6.0 12.0 0.00 0.04 0.02 94 1031.6
20220122041701 43 306 5.0 12.0 0.00 0.04 0.02 94 1031.6
20220122040703 43 313 5.0 12.0 0.00 0.04 0.02 94 1031.5
20220122035702 43 308 6.0 12.0 0.00 0.04 0.02 94 1031.6
20220122034702 43 301 6.0 10.0 0.00 0.04 0.02 94 1031.6
20220122033701 43 305 5.0 10.0 0.00 0.04 0.02 94 1031.6
20220122032701 43 304 5.0 12.0 0.00 0.04 0.02 94 1031.6
20220122031702 43 307 5.0 10.0 0.00 0.04 0.02 94 1031.5
20220122030702 43 301 6.0 12.0 0.00 0.05 0.02 94 1031.5
20220122025701 43 310 8.0 14.0 0.00 0.05 0.02 94 1031.4
20220122024702 43 303 6.0 13.0 0.00 0.05 0.02 94 1031.4
20220122023703 43 312 10.0 16.0 0.00 0.06 0.02 94 1031.4
20220122022701 43 306 7.0 14.0 0.00 0.06 0.02 94 1031.5
20220122021702 43 299 7.0 14.0 0.00 0.06 0.02 94 1031.4
20220122020704 43 310 5.0 12.0 0.00 0.06 0.02 94 1031.3
20220122015702 43 306 7.0 12.0 0.01 0.06 0.02 94 1031.3
20220122014703 43 308 7.0 13.0 0.01 0.06 0.02 94 1031.2
20220122013703 43 314 9.0 13.0 0.01 0.06 0.02 94 1031.2
20220122012702 43 287 8.0 13.0 0.01 0.06 0.02 94 1031.1
20220122011702 43 305 7.0 12.0 0.01 0.06 0.02 94 1031.1
20220122010702 43 295 7.0 12.0 0.01 0.06 0.02 94 1031.0
20220122005702 43 305 7.0 12.0 0.00 0.06 0.01 94 1031.0
20220122004702 43 299 8.0 13.0 0.00 0.06 0.01 94 1031.0
20220122003702 42 297 6.0 12.0 0.01 0.06 0.01 93 1031.0
20220122002702 42 301 5.0 10.0 0.01 0.06 0.01 93 1031.0
20220122001702 42 289 5.0 12.0 0.01 0.06 0.01 93 1031.1
20220122000702 42 277 4.0 10.0 0.01 0.06 0.01 93 1031.2
20220121235703 42 296 5.0 9.0 0.01 0.06 0.01 93 1031.2
20220121234702 42 298 5.0 10.0 0.01 0.06 0.01 93 1031.2
20220121233702 42 292 5.0 12.0 0.00 0.05 0.00 93 1031.2
20220121232702 42 304 6.0 12.0 0.00 0.05 0.00 92 1031.1
20220121231702 42 289 9.0 12.0 0.00 0.06 0.00 92 1031.0
20220121230702 42 316 8.0 15.0 0.00 0.06 0.00 92 1031.0
20220121225702 42 301 5.0 13.0 0.00 0.06 0.06 92 1030.9
20220121224702 42 279 7.0 12.0 0.00 0.06 0.06 92 1030.9
20220121223702 42 293 7.0 12.0 0.00 0.06 0.06 92 1030.9
20220121222702 42 288 6.0 10.0 0.00 0.06 0.06 91 1030.9
20220121221702 42 275 6.0 13.0 0.00 0.06 0.06 91 1030.9
20220121220703 42 299 6.0 10.0 0.00 0.06 0.06 91 1030.9
20220121215703 42 287 6.0 10.0 0.00 0.06 0.06 91 1030.9
20220121214703 42 282 5.0 17.0 0.00 0.06 0.06 90 1031.0
20220121213703 42 293 8.0 17.0 0.00 0.06 0.06 90 1031.1
20220121212702 42 284 6.0 12.0 0.00 0.06 0.06 89 1031.0
20220121211702 42 298 6.0 12.0 0.00 0.06 0.06 89 1031.0
20220121210703 42 272 6.0 12.0 0.00 0.06 0.06 89 1031.0
20220121205702 42 292 6.0 12.0 0.00 0.06 0.06 89 1031.0
20220121204702 42 304 5.0 12.0 0.00 0.06 0.06 89 1031.0
20220121203702 42 282 5.0 12.0 0.00 0.06 0.06 89 1031.1
20220121202704 42 291 5.0 13.0 0.00 0.06 0.06 89 1031.1
20220121201702 42 291 5.0 14.0 0.00 0.06 0.06 89 1031.1
20220121200702 42 294 7.0 14.0 0.00 0.06 0.06 88 1031.3
20220121195703 42 282 5.0 13.0 0.00 0.06 0.06 88 1031.2
20220121194704 42 290 7.0 14.0 0.00 0.06 0.06 88 1031.2
20220121193703 42 292 5.0 14.0 0.00 0.06 0.06 88 1031.1
20220121192703 42 304 10.0 14.0 0.00 0.06 0.06 88 1031.1
20220121191702 42 287 6.0 12.0 0.00 0.06 0.06 88 1031.0
20220121190702 42 299 5.0 12.0 0.00 0.06 0.06 88 1030.9
20220121185704 42 297 8.0 15.0 0.00 0.06 0.06 88 1030.8
20220121184704 43 303 7.0 12.0 0.00 0.06 0.06 88 1030.9
20220121183703 43 295 7.0 12.0 0.00 0.06 0.06 89 1031.0
20220121182703 43 309 10.0 15.0 0.00 0.06 0.06 89 1031.0
20220121181703 43 296 8.0 14.0 0.00 0.06 0.06 89 1031.0
20220121180703 43 300 6.0 16.0 0.00 0.06 0.06 89 1030.9
20220121175703 43 317 6.0 16.0 0.00 0.06 0.06 89 1031.0
20220121174704 43 307 7.0 17.0 0.00 0.06 0.06 89 1030.9
20220121173703 43 312 7.0 17.0 0.00 0.06 0.06 90 1030.8
20220121172703 42 310 6.0 15.0 0.00 0.06 0.06 90 1030.7
20220121171702 42 296 7.0 15.0 0.00 0.06 0.06 90 1030.7
20220121170704 42 296 7.0 15.0 0.00 0.06 0.06 90 1030.8
20220121165704 43 301 7.0 15.0 0.00 0.06 0.06 90 1030.9
20220121164703 43 295 5.0 12.0 0.00 0.06 0.06 89 1030.9
20220121163705 43 288 8.0 13.0 0.00 0.06 0.06 89 1031.0
20220121162703 43 301 10.0 16.0 0.00 0.06 0.06 89 1031.0
20220121161703 43 297 7.0 16.0 0.00 0.06 0.06 89 1031.0
20220121160704 43 308 10.0 15.0 0.00 0.06 0.06 89 1031.1
20220121155703 43 303 8.0 15.0 0.00 0.06 0.06 89 1031.0
20220121154703 43 309 6.0 13.0 0.00 0.06 0.06 89 1031.1
20220121153703 43 287 9.0 17.0 0.00 0.06 0.06 89 1031.2
20220121152704 43 295 7.0 22.0 0.00 0.06 0.06 89 1031.3
20220121151704 43 300 7.0 23.0 0.00 0.06 0.06 88 1031.2
20220121150704 43 299 10.0 25.0 0.00 0.06 0.06 88 1031.2
20220121145704 43 300 6.0 15.0 0.00 0.06 0.06 88 1031.1
20220121144703 43 308 7.0 17.0 0.00 0.06 0.06 88 1031.2
20220121143703 43 285 7.0 21.0 0.00 0.06 0.06 88 1031.2
20220121142704 43 297 9.0 16.0 0.00 0.06 0.06 88 1031.2
20220121141703 43 310 9.0 15.0 0.00 0.06 0.06 88 1031.3
20220121140704 44 295 10.0 15.0 0.00 0.06 0.06 88 1031.3
20220121135704 43 301 7.0 18.0 0.00 0.06 0.06 88 1031.5
20220121134704 43 296 6.0 13.0 0.00 0.06 0.06 88 1031.4
20220121133704 43 294 9.0 17.0 0.00 0.06 0.06 88 1031.5
20220121132705 43 300 9.0 16.0 0.00 0.06 0.06 88 1031.9
20220121131703 43 287 1.0 14.0 0.00 0.06 0.06 88 1031.8
20220121130704 43 296 10.0 24.0 0.00 0.06 0.06 88 1031.9
20220121125704 43 287 0.0 2.0 0.00 0.06 0.06 88 1031.9
20220121124704 43 305 0.0 0.0 0.00 0.06 0.06 88 1032.0
20220121123705 43 302 0.0 0.0 0.00 0.06 0.06 88 1032.0
20220121122704 43 299 0.0 0.0 0.00 0.06 0.06 88 1032.1
20220121121704 43 304 0.0 0.0 0.00 0.06 0.06 89 1032.0
20220121120704 43 298 0.0 0.0 0.00 0.07 0.06 90 1032.2
20220121115704 43 298 0.0 0.0 0.00 0.07 0.06 90 1032.2
20220121114704 42 293 0.0 0.0 0.00 0.07 0.06 91 1032.2
20220121113704 42 306 0.0 0.0 0.00 0.07 0.06 92 1032.3
20220121112704 42 304 0.0 0.0 0.00 0.07 0.06 92 1032.3
20220121111705 41 283 0.0 0.0 0.00 0.07 0.06 92 1032.3
20220121110704 40 274 0.0 0.0 0.00 0.08 0.06 92 1032.4
20220121105703 40 276 0.0 6.0 0.00 0.08 0.06 92 1032.6
20220121104704 40 272 1.0 7.0 0.01 0.08 0.06 92 1032.6
20220121103705 39 249 0.0 8.0 0.01 0.08 0.06 92 1032.7
20220121102705 39 251 3.0 6.0 0.02 0.08 0.06 92 1032.6
20220121101705 39 262 0.0 0.0 0.02 0.08 0.06 92 1032.5
20220121100706 39 282 0.0 0.0 0.02 0.08 0.06 91 1032.4
20220121095705 38 326 0.0 0.0 0.02 0.08 0.06 91 1032.5
20220121094704 38 305 3.0 8.0 0.01 0.07 0.05 91 1032.6
20220121093705 37 295 0.0 0.0 0.01 0.08 0.05 91 1032.7
20220121092705 37 304 0.0 0.0 0.00 0.07 0.04 91 1032.6
20220121091705 37 285 0.0 0.0 0.00 0.07 0.04 91 1032.6
20220121090704 36 288 0.0 0.0 0.00 0.07 0.04 91 1032.8
20220121085704 36 259 0.0 7.0 0.00 0.07 0.04 91 1032.6